Regional Weather Roundup
Issued by NWS

Home | Current Version | Previous Version | Text Only | Print | Product List | Glossary On
Versions: 1 2 3 4 5 6 7 8 9 10 11 12 13 14 15 16 17 18 19 20 21 22 23 24 25 26 27 28 29 30 31 32 33 34 35 36 37 38 39 40 41 42 43 44 45 46 47 48 49 50
000
ASUS43 KFSD 310910
RWRSD

WEATHER ROUNDUP FOR SOUTH DAKOTA
NATIONAL WEATHER SERVICE SIOUX FALLS SD
300 AM CST SAT JAN 31 2015

NOTE: "FAIR" INDICATES FEW OR NO CLOUDS BELOW 12,000 FEET WITH NO
SIGNIFICANT WEATHER AND/OR OBSTRUCTIONS TO VISIBILITY.


SDZ001>005-009-010-012>017-311000-
NORTHWEST AND NORTH CENTRAL SOUTH DAKOTA

CITY           SKY/WX    TMP DP  RH WIND       PRES   REMARKS
BUFFALO          N/A     20  17  88 S6        30.01S WCI  12
FAITH            N/A     24  20  84 NE3       30.10R
MOBRIDGE       CLOUDY    27  25  92 N12       30.13S FOG     WCI  17
$$

SDZ012>016-024>037-041>051-057-063-072>074-311000-
SOUTHWEST AND SOUTH CENTRAL SOUTH DAKOTA

CITY           SKY/WX    TMP DP  RH WIND       PRES   REMARKS
RAPID CTY ARPT CLOUDY    30  22  72 NW5       30.07S WCI  25
PIERRE         PTCLDY    27  24  89 NE8       30.10S WCI  19
CUSTER         CLOUDY    26  18  71 NE3       30.02F
ELLSWORTH AFB  CLOUDY    29  22  77 NW1       30.06F
PHILIP         CLOUDY    22  19  89 W5        30.11R WCI  16
PINE RIDGE     CLOUDY    25  22  88 CALM      30.05F
WINNER         FAIR      30  23  75 CALM      30.09S
$$

SDZ004>011-016>023-039-040-311000-
NORTHEAST SOUTH DAKOTA

CITY           SKY/WX    TMP DP  RH WIND       PRES   REMARKS
ABERDEEN       CLOUDY    26  23  88 NE13      30.19R WCI  15
WATERTOWN      CLOUDY    25  23  92 NE15      30.11F FOG     WCI  13
SISSETON         N/A     26  24  92 N17       30.19R WCI  13
$$

SDZ017-020-022-023-036>040-048>070-311000-
SOUTHEAST SOUTH DAKOTA

CITY           SKY/WX    TMP DP  RH WIND       PRES   REMARKS
SIOUX FALLS    PTCLDY    23  21  92 N3        30.10F
HURON          PTCLDY    26  24  92 N12       30.12S WCI  16
CHAMBERLAIN    MOCLDY    25  22  91 CALM      30.11R
MITCHELL       PTCLDY    24  23  96 NW5       30.11S WCI  18
YANKTON        CLEAR     36  27  69 SW6       30.12R
$$

ABBREVIATIONS USED IN REMARKS
   TC - TEMPERATURE IN CELSIUS
  WCI - WIND CHILL INDEX
   HX - HEAT INDEX
  VSB - VISIBILITY




USA.gov is the U.S. government's official web portal to all federal, state and local government web resources and services.